Location: Bow
(51.5261°N, 0.0167°W)
Time: 13:12:13
(UTC+00:00)

Cosmos 2098 Rocket - Pass Details

Date: 18 September 2020
Orbit: 366 x 1185 km, 82.9° (Epoch: 25 October)

Event Time Altitude Azimuth Distance (km) Brightness Sun altitude
Rises 20:50:11 0° 350° (N) 4,085 7.9 -24.4°
Reaches altitude 10° 20:53:02 10° 354° (N) 3,087 7.2 -24.7°
Maximum altitude 21:00:17 61° 74° (ENE) 1,205 4.2 -25.6°
Enters shadow 21:01:14 56° 110° (ESE) 1,242 4.1 -25.7°
